Location: Stilling
(56.0622°N, 9.9882°E)
Time: 23:44:12
(UTC+00:00)

In-Cosmos 22 Rocket - Pass Details

Date: 13 July 2020
Orbit: 791 x 887 km, 81.2° (Epoch: 14 August)

Event Time Altitude Azimuth Distance (km) Brightness Sun altitude
Rises 21:06:54 0° 195° (SSW) 3,281 6.9 -6.9°
Reaches altitude 10° 21:09:15 10° 196° (SSW) 2,358 6.1 -7.1°
Maximum altitude 21:14:35 83° 285° (WNW) 814 4.2 -7.5°
Drops below altitude 10° 21:20:01 10° 14° (NNE) 2,410 7.3 -7.8°
Sets 21:22:27 0° 15° (NNE) 3,358 8.1 -8.0°
